STARLINK-34584, 64697

Orbit data source: Space-Track

STARLINK-34584, 64697 is a payload satellite owned by SpaceX/Seattle (US) in LEO that was launched on Sat, 28 Jun 2025 UTC via an FALCON 9 launch vehicle from the Air Force Western Test Range (AFWTR). Payload-class satellites include a variety of spacecraft equipped with specific instruments for various scientific and technological missions. These include communications satellites like Starlink; space stations such as the ISS; scientific satellites like the Hubble; Earth observation satellites from companies like Planet Labs, Umbra, and HawkEye 360; GPS; miniature CubeSats for education and research; and military/defense satellites.

Loading next visibility...
Identifier
64697, 2025-142B
Orbit
LEO
Last TLE update
9 hours ago
Origin
Manufacturer
SpaceX/Seattle
Mission
Operational spacecraft
Bus & Motor
STARLINK V2MO, Unknown motor
Mass
575 kg wet, ~530 kg dry
Launch date (UTC)
2025-06-28 (1 week ago)
Launch vehicle
FALCON 9
Launch site
Air Force Western Test Range (AFWTR)
Object type
Payload
Rocket body
Debris
Shape & HBR
Unknown
Radar Cross Section
RCS unknown

Expand to show TLE details & history

TLE from 9 hours ago
0 STARLINK-34584
1 64697U 25142B   25186.83335648 -.01110307  00000-0 -47640-2 0  9996
2 64697  69.9953 230.6292 0003832 273.0775  30.6183 15.87369998  2161
Epoch: 2025-07-05T20:00Z
TLE epoch observation values (Epoch: 2025-07-05T20:00:01.999Z)
Latitude
-51.63935°
Longitude
-20.66369°
Altitude
326.923 km
Speed
7.712 km/s
True Right ascension
13h 33m 38s
True Declination
-51° 27' 40"
Sunlit
Object was in full shadow at epoch
Visualization orbit readout
Latitude
-17.98595°
Longitude
-167.7327°
Altitude
318.045 km
Speed
7.717 km/s
Apparent Right ascension
04h 07m 07s
Apparent Declination
-28° 40' 10"
Sunlit
Object is in daylight
Visualization observer readout
Local Sidereal Time
16:35:27
Azimuth
29.563° NE
Elevation
-77.333°
Doppler factor
1
Orbital elements
Apogee altitude
310.09 km
Perigee altitude
304.966 km
Semi-major axis
6,685.665 km
Eccentricity
0.00038
Inclination
69.9953°
RAAN
230.6292°
Arg. of periapsis
273.0775°
True anomaly
Unknown
Mean anomaly
30.6183°
Eccentric anomaly
Unknown
Mean motion
3.97033 °/min
Orbital period
90.67 mins
BSTAR
-0.004764
Loading maneuver chart data...
Loading SW <> Apogee altitude chart data...
Loading historical data...
Loading historical data...
Loading historical data...
Loading historical data...
Loading historical data...
Loading historical data...
Loading historical data...

STARLINK-34584 Visibility forecast

Observer location: undefined°, undefined°

Span
Click to sort rows by Start time (UTC) header in descending order
Start Az.
Max El. time (UTC)
Max El. Az.
Max El.
End time (UTC)
End Az.
4 mins2025-07-07 04:10:15.034Z198.316° SSW2025-07-07 04:12:15.034Z172.404° S41.613°2025-07-07 04:14:15.034Z29.761° NE
|